Change the Weather History Date:

Wednesday, October 12, 2011

  Actual Average Record
Temperature  
Mean Temperature 64 °F 55 °F  
Max Temperature 71 °F 68 °F 93 °F (1975)
Min Temperature 56 °F 42 °F 21 °F (1909)
Degree Days  
Heating Degree Days 1 11  
Month to date heating degree days 23 108  
Since 1 July heating degree days 180 206  
Cooling Degree Days 0 1  
Month to date cooling degree days 37 12  
Year to date cooling degree days 1296 1170  
Growing Degree Days 12 (Base 50)    
Moisture  
Dew Point 54 °F    
Average Humidity 74    
Maximum Humidity 100    
Minimum Humidity 47    
Precipitation  
Precipitation 0.14 in 0.07 in 2.59 in (1957)
Month to date precipitation 0.92 0.86  
Year to date precipitation 25.92 25.46  
Snow  
Snow 0.00 in 0.10 in - ()
Month to date snowfall 0.0 0.1  
Since 1 July snowfall 0.0 0.1  
Snow Depth 0.00 in    
Sea Level Pressure  
Sea Level Pressure 29.74 in    
Wind  
Wind Speed 8 mph (NW)    
Max Wind Speed 28 mph    
Max Gust Speed 33 mph    
Visibility 8 miles    
Events Rain    
T = Trace of Precipitation, MM = Missing Value Source: NWS Daily Summary

Daily Weather History Graph

Daily Weather History Graph

Search for Another Location

Airport or City:

Trip Planner

Search our weather history database for the weather conditions in past years. The results will help you decide how hot, cold, wet, or windy it might be!

Date:

Astronomy

Oct. 12, 2011 Rise Set
Actual Time 7:34 AM CDT 6:51 PM CDT
Civil Twilight 7:07 AM CDT 7:19 PM CDT
Nautical Twilight 6:35 AM CDT 7:50 PM CDT
Astronomical Twilight 6:03 AM CDT 8:22 PM CDT
Moon 6:53 PM CDT (10/12) 8:11 AM CDT (10/12)
Length of Visible Light 12h 11m
Length of Day
11h 16m
Full, 100% of the Moon is Illuminated
Oct 12
Full
Oct 19
Last Quarter
Oct 26
New
Nov 2
First Quarter
Nov 10
Full

Hourly Weather History & Observations

Time (CDT) Temp. Dew Point Humidity Pressure Visibility Wind Dir Wind Speed Gust Speed Precip Events Conditions
12:54 AM 64.0 °F 52.0 °F 65% 29.73 in 10.0 mi West 5.8 mph - N/A   Overcast
1:54 AM 63.0 °F 53.1 °F 70% 29.71 in 10.0 mi ESE 4.6 mph - N/A   Overcast
2:54 AM 60.1 °F 55.9 °F 86% 29.71 in 4.0 mi WSW 3.5 mph - 0.07 in Rain Rain
3:54 AM 57.9 °F 55.9 °F 93% 29.72 in 10.0 mi SSE 5.8 mph - 0.06 in Rain Light Rain
4:54 AM 60.1 °F 55.9 °F 86% 29.71 in 10.0 mi Calm Calm - 0.00 in   Overcast
5:41 AM 60.8 °F 57.2 °F 88% 29.71 in 10.0 mi SSE 5.8 mph - 0.01 in Rain Light Rain
5:54 AM 61.0 °F 57.0 °F 87% 29.68 in 10.0 mi SSE 9.2 mph - 0.01 in   Overcast
6:13 AM 57.2 °F 57.2 °F 100% 29.70 in 10.0 mi South 6.9 mph - N/A   Scattered Clouds
6:54 AM 55.9 °F 55.0 °F 97% 29.68 in 10.0 mi South 4.6 mph - N/A   Clear
7:54 AM 55.9 °F 55.9 °F 100% 29.68 in 10.0 mi Calm Calm - N/A   Clear
8:54 AM 57.9 °F 57.0 °F 97% 29.69 in 10.0 mi Calm Calm - N/A   Clear
9:32 AM 60.8 °F 57.2 °F 88% 29.71 in 10.0 mi Calm Calm - N/A   Mostly Cloudy
9:54 AM 60.8 °F 57.2 °F 88% 29.72 in 10.0 mi West 5.8 mph - N/A   Overcast
10:54 AM 59.0 °F 57.0 °F 93% 29.72 in 6.0 mi NW 5.8 mph - N/A   Overcast
11:34 AM 59.0 °F 57.2 °F 94% 29.74 in 2.0 mi North 8.1 mph - N/A   Overcast
11:54 AM 59.0 °F 57.9 °F 96% 29.73 in 2.0 mi North 6.9 mph - 0.00 in   Overcast
11:56 AM 59.0 °F 57.2 °F 94% 29.74 in 4.0 mi North 8.1 mph - N/A   Overcast
12:05 PM 60.8 °F 57.2 °F 88% 29.74 in 3.0 mi NNW 11.5 mph - N/A   Overcast
12:23 PM 60.8 °F 57.2 °F 88% 29.75 in 3.0 mi NW 8.1 mph - N/A   Overcast
12:54 PM 60.8 °F 57.2 °F 88% 29.76 in 3.0 mi North 6.9 mph - N/A   Overcast
1:49 PM 62.6 °F 57.2 °F 82% 29.75 in 9.0 mi NW 13.8 mph - N/A   Overcast
1:54 PM 62.1 °F 57.0 °F 84% 29.73 in 10.0 mi NW 11.5 mph - N/A   Overcast
2:52 PM 62.6 °F 57.2 °F 82% 29.74 in 10.0 mi North 10.4 mph - N/A   Overcast
2:54 PM 64.0 °F 57.9 °F 80% 29.73 in 10.0 mi NNW 8.1 mph - N/A   Overcast
3:04 PM 64.4 °F 57.2 °F 77% 29.74 in 10.0 mi NNW 10.4 mph - N/A   Overcast
3:28 PM 64.4 °F 55.4 °F 73% 29.74 in 10.0 mi NNW 9.2 mph - N/A   Overcast
3:54 PM 66.2 °F 55.4 °F 68% 29.74 in 10.0 mi NNW 12.7 mph - N/A   Scattered Clouds
4:54 PM 70.0 °F 48.9 °F 47% 29.71 in 10.0 mi NNW 19.6 mph 28.8 mph N/A   Mostly Cloudy
5:54 PM 69.1 °F 48.0 °F 47% 29.73 in 10.0 mi NNW 11.5 mph - N/A   Partly Cloudy
6:54 PM 66.0 °F 46.9 °F 50% 29.77 in 10.0 mi NW 12.7 mph - N/A   Scattered Clouds
7:54 PM 64.0 °F 46.0 °F 52% 29.80 in 10.0 mi NW 12.7 mph - N/A   Scattered Clouds
8:54 PM 62.1 °F 44.1 °F 52% 29.81 in 10.0 mi NW 15.0 mph - N/A   Clear
9:54 PM 60.1 °F 44.1 °F 55% 29.82 in 10.0 mi NW 12.7 mph - N/A   Clear
10:54 PM 57.2 °F 44.6 °F 63% 29.84 in 10.0 mi NW 10.4 mph - N/A   Clear
11:54 PM 57.9 °F 44.1 °F 60% 29.84 in 10.0 mi NW 10.4 mph - N/A   Clear